Temp
27 27 27 27 27 26 26 27 27 27 27 27 27 27 28 28 28 28 28 28 28 28 28 28 27 27 27 26 26 26 26 26 26 25 25 25 25 26 26 26 26 25 25 26 26 27 27 27 27 27 27 27 27 27 27 27 27 27 27 27 27 27 26 26 25 25 26 26 26 27 27 27 28 28 28 28 28 28 27 27 27 27 27 26 26
28 27 27 27 27 27 27 27 27 27 27 28 28 27 28 28 28 28 28 28 28 28 28 28 27 27 27 27 27 27 26 26 26 26 25 25 25 26 26 26 26 26 25 26 26 26 27 27 27 26 26 26 27 27 27 27 27 27 27 27 27 27 27 26 26 25 26 26 26 26 27 27 27 27 27 28 28 27 27 27 27 27 26 26 26
28 27 27 27 27 27 27 27 27 27 28 28 28 28 28 28 28 28 28 28 28 28 28 28 27 27 27 27 27 27 27 26 26 26 26 25 25 26 26 26 26 26 26 26 26 26 26 27 27 26 26 26 27 27 27 27 28 28 28 27 27 27 27 27 27 26 26 26 26 26 26 27 27 27 27 27 27 27 27 27 27 26 26 26 26
29 28 27 28 28 27 27 27 27 27 28 28 28 28 28 28 28 28 28 28 28 28 28 28 28 27 27 27 27 27 27 27 26 26 26 26 26 26 26 26 26 26 26 26 26 26 26 26 26 26 27 27 27 27 27 27 27 28 28 28 28 27 27 27 27 27 26 26 26 26 26 26 26 27 27 27 27 27 27 27 26 26 26 26 25
29 28 28 28 28 28 28 28 28 28 28 29 28 28 28 28 28 28 28 29 29 28 28 28 28 28 27 27 27 27 27 27 27 27 26 26 26 26 26 26 27 26 26 26 26 26 26 26 26 27 27 27 27 27 27 27 27 27 28 28 28 28 28 27 27 27 27 26 26 26 26 26 26 26 26 26 26 26 26 26 26 26 26 25 25
30 29 28 29 28 28 28 28 28 28 28 29 29 29 29 29 28 28 28 29 29 28 28 28 28 28 27 27 27 27 27 27 27 27 27 27 26 26 26 26 27 27 26 26 26 26 26 26 26 27 27 27 27 27 27 27 27 27 27 27 28 28 27 27 27 27 27 26 26 26 26 26 26 26 26 26 26 26 26 26 26 26 26 26 26
30 29 29 29 29 29 29 29 29 29 29 29 29 29 29 29 29 29 28 29 29 29 28 28 28 28 28 28 27 27 27 27 27 27 27 27 27 26 26 26 27 27 26 26 26 26 26 26 26 27 27 27 27 27 27 27 27 27 27 27 27 27 27 27 27 27 27 26 26 26 26 26 26 26 26 27 27 27 26 26 26 26 26 26 26
31 30 29 29 29 29 29 29 29 29 29 29 29 29 29 29 29 29 29 29 29 29 29 28 28 28 27 27 27 27 27 27 27 27 27 27 27 27 27 27 27 27 27 27 26 26 27 27 27 27 27 27 27 27 27 27 27 27 27 27 27 27 27 27 27 27 27 26 26 26 26 26 26 27 27 27 27 27 27 26 26 26 26 26 26
31 30 30 30 30 29 29 29 29 29 29 29 30 30 30 30 30 29 29 29 29 30 29 29 28 28 28 27 27 27 27 27 27 27 27 27 27 27 27 27 27 27 27 27 27 27 27 27 27 27 27 27 27 27 27 27 27 27 28 27 27 27 27 27 26 26 26 26 26 26 26 26 26 27 27 27 27 27 27 27 27 27 26 26 26
32 31 30 30 30 30 29 29 29 29 29 29 29 30 30 30 30 30 29 29 29 29 30 29 28 28 28 27 27 27 27 27 27 27 27 27 27 28 27 27 27 27 27 27 27 27 27 27 28 28 28 28 28 28 28 28 28 27 27 27 27 27 27 27 26 26 26 26 26 26 26 26 26 27 27 27 27 28 28 27 26 26 26 25 25
32 31 31 30 30 30 29 29 29 29 29 29 29 30 30 30 30 30 29 29 29 29 30 30 29 28 28 28 27 27 27 27 27 27 27 27 27 28 28 27 27 27 27 27 27 27 27 28 28 28 29 29 29 28 28 28 28 28 28 27 27 27 27 27 26 26 26 26 26 26 26 26 27 27 27 27 27 27 27 26 26 25 25 24 24
32 32 31 31 30 30 29 29 29 29 29 29 29 29 30 30 30 30 30 29 29 29 29 30 30 29 28 28 27 27 27 28 27 27 27 27 27 28 28 28 27 27 27 27 28 28 28 28 28 28 29 29 29 29 29 28 28 28 28 27 27 27 27 27 26 26 26 26 26 26 26 26 26 26 27 27 27 27 26 26 25 24 24 24 24
33 32 32 31 30 30 29 29 29 29 29 29 29 29 30 30 30 30 30 29 29 29 29 29 30 29 29 28 28 28 28 28 28 27 27 27 27 27 28 28 28 28 27 27 28 28 28 28 28 28 29 29 29 29 29 28 28 28 28 27 27 27 27 27 27 26 26 25 25 25 25 26 25 26 26 26 26 26 25 25 24 24 24 24 24
33 32 32 31 30 30 29 29 29 29 29 29 29 29 29 30 30 30 30 30 29 29 29 29 29 29 29 29 28 28 28 28 28 28 27 27 27 27 27 28 28 28 28 27 27 28 28 28 28 28 28 29 29 29 29 28 28 28 27 27 27 27 27 27 27 27 26 26 25 25 25 25 25 26 26 26 25 25 25 24 24 24 23 23 23
33 32 32 31 30 30 29 29 29 29 29 29 29 29 29 29 30 30 30 30 29 29 29 29 29 29 29 29 29 29 29 28 28 28 28 27 27 27 27 27 28 28 28 28 28 28 28 28 28 28 28 28 29 29 29 28 28 27 27 26 26 26 26 27 27 27 27 26 26 26 26 26 26 26 26 25 25 24 24 24 24 24 23 23 23
33 32 32 31 30 30 29 29 29 29 29 29 29 29 29 29 29 30 30 30 29 29 29 29 29 29 29 29 29 29 29 29 29 28 28 28 27 27 27 27 28 28 28 28 28 28 28 28 28 28 28 28 28 28 28 28 28 27 26 26 26 26 26 26 27 27 27 27 27 27 27 27 27 26 25 25 25 25 24 24 24 24 23 23 23
33 32 32 31 30 30 30 29 29 29 29 29 28 28 29 29 29 29 30 30 30 29 28 29 29 29 29 29 29 29 29 29 29 29 28 28 27 27 27 27 27 27 28 28 28 28 28 28 28 28 27 28 28 28 28 28 28 27 27 26 26 26 26 27 27 27 27 27 27 27 27 27 27 26 25 25 25 25 24 24 24 24 23 23 23
33 32 32 31 31 30 30 29 29 29 29 29 28 28 29 29 29 29 29 30 30 29 29 28 29 29 29 29 29 29 29 29 29 29 29 28 28 27 27 26 26 26 27 27 27 28 28 28 28 28 27 27 27 27 27 27 27 27 27 27 27 26 27 27 27 27 28 28 28 28 27 27 26 26 26 25 25 25 24 24 24 23 23 22 22
33 32 31 31 31 30 30 29 29 29 28 28 28 28 28 29 29 29 29 29 30 29 29 28 29 29 29 29 29 29 29 29 29 29 29 29 28 27 27 26 25 25 26 26 26 27 27 27 27 27 27 27 27 27 27 27 27 27 27 26 26 26 26 27 27 27 28 28 28 27 27 27 26 26 25 25 25 25 25 25 24 23 23 22 23
33 32 32 32 31 30 29 29 29 28 28 28 28 28 28 28 29 29 29 29 30 30 29 29 29 29 29 29 29 28 29 29 29 29 29 28 28 27 26 26 25 25 25 25 26 26 26 27 27 27 27 27 27 27 27 27 27 26 26 26 26 26 26 26 27 27 27 27 27 26 26 26 26 25 25 25 25 25 25 25 25 24 23 23 23
34 33 32 31 31 30 29 29 29 28 28 28 28 28 28 28 28 29 29 29 30 30 30 29 29 29 29 29 29 29 28 29 29 29 29 28 28 27 26 26 26 25 25 25 26 26 26 26 26 27 27 27 27 27 26 26 26 26 26 26 26 26 26 26 26 26 25 25 26 26 26 26 25 25 25 25 25 25 25 25 24 23 23 22 22
33 33 32 31 31 30 30 29 29 29 28 28 28 28 28 28 28 28 29 29 29 30 30 30 30 30 30 30 30 29 29 28 29 29 29 28 28 27 27 26 26 26 26 26 26 26 26 26 27 27 27 27 27 26 26 26 26 26 26 26 25 25 25 25 25 25 24 24 25 25 25 25 25 25 25 25 25 26 25 24 23 22 22 22 22
33 32 31 31 31 30 30 29 29 29 28 28 28 28 28 28 28 28 29 29 29 30 30 30 30 30 30 30 30 30 29 29 29 29 29 29 28 28 27 27 26 26 26 26 26 26 26 27 27 27 27 27 27 27 26 26 26 26 26 25 25 25 25 25 24 24 24 23 24 24 24 24 25 24 24 25 25 25 24 24 23 23 23 23 23
33 32 31 31 31 30 30 29 29 29 29 28 28 28 28 28 28 28 28 29 29 29 29 30 30 30 30 30 30 30 30 30 29 29 29 29 28 28 28 27 27 26 26 26 26 27 27 27 27 27 27 27 27 27 26 26 26 26 25 25 24 24 24 24 23 23 23 23 23 23 23 24 24 24 24 24 24 24 24 24 23 23 23 23 22
32 32 31 31 31 30 30 29 29 29 29 28 28 28 28 28 28 28 28 29 29 29 29 29 30 30 30 31 30 30 30 30 30 29 29 29 28 28 28 27 27 26 26 26 26 27 27 27 27 27 27 27 27 27 27 26 26 25 25 25 24 24 23 23 23 22 22 22 22 23 23 23 24 23 24 24 24 24 24 23 22 23 23 22 22
32 31 31 30 30 30 30 29 29 29 29 29 28 28 28 28 29 28 28 29 29 29 29 29 29 29 30 30 30 31 31 30 30 29 29 29 28 28 28 27 27 26 26 26 26 26 26 26 27 27 27 27 27 27 27 26 26 25 24 24 23 23 23 23 22 22 22 22 22 22 23 23 23 23 23 24 23 23 22 22 22 22 22 21 21
31 31 30 30 30 30 30 30 29 29 29 29 28 28 28 29 29 28 28 29 29 29 29 29 29 29 29 30 30 31 31 30 29 29 29 29 28 28 28 27 27 26 26 25 26 26 25 26 26 26 27 27 27 27 27 26 25 25 24 23 23 23 23 22 22 22 22 22 22 22 23 23 23 23 23 23 23 22 22 21 22 22 21 20 20
31 30 30 30 30 30 30 30 30 29 29 29 29 29 29 29 29 28 29 29 29 29 29 29 29 29 29 30 30 30 30 30 30 29 29 29 28 28 27 27 26 26 26 25 25 25 25 25 25 25 25 26 26 25 25 24 24 24 24 23 23 23 23 22 22 22 22 22 22 22 22 22 22 22 22 22 22 21 21 21 21 21 20 20 20
30 30 30 30 30 30 30 30 30 30 30 29 29 29 29 29 29 29 29 29 29 29 29 29 29 29 29 30 30 30 30 30 30 30 29 29 29 28 28 27 27 26 26 26 25 24 24 24 24 24 24 24 24 24 24 23 23 23 23 23 23 23 23 22 22 22 22 22 22 22 22 22 21 21 22 22 22 21 21 21 21 20 20 20 20
30 30 30 30 30 30 30 30 30 30 30 29 28 27 27 28 29 29 29 29 29 30 30 29 29 30 30 30 30 30 30 30 30 30 30 29 29 29 28 28 27 27 26 26 25 24 24 24 23 23 23 23 24 24 24 24 23 23 23 23 23 23 23 22 22 22 21 21 20 20 20 20 20 21 21 22 21 21 21 21 21 21 20 20 21
30 30 30 30 30 30 30 30 30 30 30 28 26 26 25 25 27 28 29 29 29 29 29 30 30 30 30 30 30 30 30 30 30 30 30 29 29 28 28 28 27 27 27 26 24 23 23 24 24 24 24 24 24 24 25 25 25 24 24 24 24 23 22 21 21 21 20 20 19 20 20 20 20 21 21 21 21 21 21 21 21 21 21 21 21
30 30 30 30 30 30 30 30 30 30 29 27 26 25 25 24 24 25 26 28 28 29 29 29 30 30 30 30 30 30 30 30 30 30 30 29 28 28 28 28 27 27 26 25 23 23 23 24 24 24 24 24 24 25 25 26 26 25 24 24 23 22 21 20 21 21 20 20 20 20 20 20 20 21 21 21 21 21 21 21 21 21 21 21 21
28 29 29 30 30 30 30 30 30 30 29 27 26 26 26 25 23 22 23 25 26 27 28 28 29 29 29 29 29 30 30 30 29 29 29 28 28 28 27 27 27 26 25 24 23 23 23 24 24 24 25 25 25 25 26 26 25 24 24 23 22 20 19 20 21 21 20 19 20 20 20 20 20 21 21 21 21 22 22 22 22 22 21 21 21
23 23 25 26 26 26 28 30 30 30 29 27 27 27 27 26 24 22 21 22 24 25 26 27 27 28 28 28 28 29 29 29 29 28 28 28 28 27 27 26 26 25 24 23 23 23 23 24 24 25 25 25 25 25 25 25 24 23 23 22 21 19 19 20 20 19 19 19 19 19 20 20 20 20 21 21 22 22 22 22 22 22 21 21 21
22 21 22 23 23 23 25 28 30 30 28 28 28 27 27 26 25 23 23 23 23 23 23 24 25 26 27 27 28 28 28 28 28 28 27 27 27 26 26 25 24 23 23 23 23 23 24 24 24 24 24 25 25 25 24 24 23 22 22 21 20 19 19 19 19 19 19 19 20 20 20 20 20 21 21 22 22 22 22 22 22 22 21 21 20
21 21 20 21 21 21 22 25 29 30 29 28 28 28 28 27 25 25 25 25 24 23 22 21 23 24 25 26 26 26 26 27 26 26 26 26 26 25 25 24 23 22 22 22 23 23 23 23 23 23 23 23 23 23 23 22 21 21 21 20 19 19 19 19 19 19 19 20 20 20 20 20 21 22 22 22 22 22 22 22 22 22 21 21 21
19 20 20 20 20 20 20 23 26 28 28 28 28 28 28 27 26 26 26 25 24 22 20 20 21 22 23 24 25 25 25 25 25 25 24 24 24 24 24 23 23 23 22 22 22 22 22 21 21 22 22 22 21 21 21 20 20 20 20 19 19 19 19 19 19 19 20 20 20 20 20 21 21 21 21 22 22 22 22 22 22 21 21 21 21
19 19 19 19 19 20 20 22 24 25 26 27 28 28 27 26 26 25 24 22 21 21 20 20 20 20 21 22 22 23 23 23 23 22 22 22 22 22 22 23 23 22 21 20 20 20 20 20 20 20 20 20 20 20 19 19 19 19 19 19 19 19 19 19 19 19 20 20 20 21 21 21 21 21 21 21 21 22 22 22 21 21 21 21 21
19 19 19 19 19 19 19 20 21 22 23 25 25 26 25 24 24 23 22 21 21 21 20 20 20 19 19 20 21 21 21 21 21 20 20 20 21 21 21 21 21 20 19 19 19 19 19 19 19 19 19 19 19 19 19 19 19 19 19 19 19 19 19 19 19 20 20 20 21 21 21 21 21 21 21 21 21 21 21 21 21 21 21 21 21
18 18 18 19 19 19 19 19 20 22 23 23 24 24 24 23 22 22 21 22 22 21 20 20 19 18 18 19 20 20 20 20 20 19 19 19 19 19 19 19 18 18 18 18 18 18 18 18 18 18 18 19 19 19 19 19 19 19 19 19 19 19 19 20 20 20 20 21 21 21 21 21 22 21 21 21 21 21 21 21 21 21 21 21 21
17 18 18 18 18 19 19 19 20 21 22 23 23 23 23 22 22 22 21 21 20 19 19 18 18 17 18 19 19 20 20 19 19 18 18 18 17 17 17 17 17 17 17 17 17 17 17 17 17 18 18 18 18 18 18 18 19 19 19 20 20 20 20 20 20 20 21 21 21 21 21 21 21 21 21 21 21 21 21 21 21 21 21 21 21
16 17 17 17 17 17 17 17 18 19 20 20 21 21 21 21 21 21 20 19 18 18 17 17 17 17 18 19 19 19 18 18 17 17 17 16 16 16 16 15 15 15 15 15 16 16 16 16 17 17 17 17 17 17 17 18 18 19 19 19 19 19 19 19 19 20 20 20 20 20 20 20 20 21 20 20 20 20 20 20 20 21 21 21 21
16 16 16 16 15 15 16 16 16 16 17 17 17 18 19 19 19 19 18 17 17 17 16 16 16 17 17 18 18 17 17 16 15 15 15 15 15 15 15 14 14 15 15 15 15 15 16 16 15 15 15 15 15 16 16 16 16 16 16 17 17 17 17 17 18 18 18 18 18 19 19 19 19 20 20 20 19 20 20 20 20 20 20 20 20
16 16 16 15 15 15 15 15 15 15 15 15 15 16 16 16 17 17 17 16 16 16 16 16 16 16 16 16 16 16 15 15 14 14 14 14 14 14 14 14 14 14 14 14 14 15 15 15 14 14 14 14 14 15 15 15 15 15 15 15 16 16 16 16 16 16 16 17 17 18 18 18 18 19 19 18 18 18 18 19 19 19 19 19 19
16 15 15 15 15 15 14 14 14 14 14 14 14 14 14 15 15 15 15 15 15 15 15 15 15 15 15 15 15 15 14 14 14 14 14 14 14 13 13 13 13 13 13 13 13 13 13 13 13 13 13 13 13 14 14 15 15 15 15 15 15 15 15 15 15 15 16 17 17 17 17 17 17 17 17 17 17 17 17 17 17 18 18 18 18
16 15 15 14 14 14 14 14 14 14 13 13 13 13 13 14 14 14 14 14 14 14 13 13 13 13 14 14 14 14 14 13 13 13 13 13 13 13 12 12 12 12 12 12 12 12 12 12 12 12 12 11 12 12 13 13 14 14 14 14 14 14 14 14 14 15 15 16 16 16 16 16 15 15 15 16 16 15 15 16 16 16 16 17 17
15 15 14 14 14 14 13 13 13 13 13 13 13 13 12 13 13 13 12 12 12 12 12 12 12 12 13 13 13 13 13 13 13 12 12 12 12 12 11 11 11 11 11 11 11 11 10 10 10 10 10 10 11 11 12 12 12 12 13 13 13 13 13 14 14 14 14 15 15 15 15 15 14 15 15 15 15 15 15 15 15 15 15 15 16
14 14 14 14 13 13 13 13 13 13 13 12 12 12 12 12 12 12 12 11 11 11 11 11 11 11 12 12 12 12 12 12 12 12 11 11 11 11 11 11 10 10 10 10 10 10 10 10 9 9 9 10 10 10 11 11 11 11 11 12 12 12 13 13 14 14 14 14 14 14 14 14 14 14 14 14 14 14 14 14 14 14 14 14 15
13 13 13 13 13 13 12 12 12 12 11 11 11 11 11 11 11 11 11 11 11 11 10 10 10 10 11 11 11 11 11 11 11 10 10 10 10 10 10 10 10 10 10 10 10 9 9 9 9 9 9 9 9 9 9 10 10 10 10 11 11 11 12 13 13 13 13 13 13 13 13 14 14 14 14 14 14 14 14 14 14 14 14 14 14
12 11 11 11 11 11 12 12 11 11 11 11 10 10 10 10 10 10 10 10 10 10 9 9 9 10 10 10 10 10 10 10 10 10 10 10 10 10 10 10 10 10 10 10 10 9 9 9 8 8 8 8 8 8 8 8 9 9 9 10 11 11 12 12 12 12 12 13 13 13 13 13 13 13 14 14 13 13 13 13 13 13 14 14 14
10 10 10 10 10 10 10 10 10 10 10 10 10 10 10 10 9 9 9 9 9 9 9 9 9 9 9 9 9 10 10 10 10 10 10 10 10 10 10 10 10 10 10 10 10 9 9 9 8 8 7 7 7 8 8 8 8 8 9 10 10 11 11 11 11 12 12 12 12 12 12 12 12 13 13 12 12 12 12 13 13 13 13 14 14
Height
768 772 774 777 779 782 785 788 791 794 797 800 802 805 807 809 812 814 816 818 820 822 824 825 828 830 832 833 835 837 838 840 841 843 844 845 846 847 848 849 850 850 852 852 853 854 854 855 855 856 856 857 858 858 858 859 859 859 859 860 860 860 860 861 861 860 858 858 857 855 855 855 854 854 854 853 852 851 850 849 849 848 848 847 846
763 766 769 773 775 778 781 784 787 790 793 796 799 801 804 806 809 811 813 815 817 819 821 823 825 827 829 831 832 834 836 837 839 841 842 843 844 846 846 847 848 849 850 851 851 852 853 853 854 854 855 856 856 857 857 857 858 857 857 858 858 858 859 859 859 858 857 856 856 855 854 854 853 852 852 851 850 849 849 848 848 847 847 846 845
758 761 765 768 771 774 777 780 783 786 789 792 795 797 800 802 805 808 810 812 814 816 818 820 823 825 827 829 830 831 833 835 837 838 840 841 842 843 844 845 846 847 848 849 849 850 851 852 852 853 853 854 854 855 856 856 856 856 856 856 856 856 857 857 857 856 856 855 854 853 852 852 851 851 850 850 849 848 847 847 847 846 845 845 844
754 757 760 763 766 770 773 776 779 782 785 788 791 793 796 799 802 804 807 809 811 813 815 817 820 822 824 826 827 829 830 832 834 836 837 838 839 841 842 843 844 845 846 847 848 849 849 850 850 851 852 852 852 853 854 854 854 854 855 855 855 855 855 855 855 855 854 853 852 851 850 850 849 849 849 848 847 846 845 845 845 844 844 843 842
750 752 755 758 762 765 768 772 775 777 780 783 786 789 792 795 798 800 803 805 807 810 812 814 817 819 821 823 824 826 828 829 831 833 835 836 837 838 839 841 842 842 844 845 846 847 847 848 848 849 850 850 850 851 852 852 853 853 853 853 854 854 854 854 853 853 853 852 850 849 849 848 847 847 847 846 845 844 843 843 842 842 841 840 839
746 748 751 754 757 760 763 766 769 772 776 779 782 785 788 791 794 796 799 801 804 806 808 811 813 815 818 820 821 823 825 826 828 830 832 833 834 836 837 838 839 840 841 842 843 844 845 846 846 847 848 848 848 849 850 850 851 851 851 852 852 852 852 852 852 851 851 850 848 847 847 847 846 844 844 844 843 842 841 840 840 839 838 837 836
742 744 747 749 752 755 757 760 764 767 771 774 778 781 784 787 789 792 795 797 800 802 805 807 810 812 814 817 819 820 822 824 825 827 829 830 832 833 834 836 837 838 839 840 841 842 842 843 844 845 845 846 846 847 847 848 849 849 849 850 850 850 850 850 850 850 849 847 846 845 844 844 844 842 842 842 841 840 840 838 837 836 835 834 834
738 740 743 745 747 749 752 755 759 763 767 771 774 777 780 783 785 788 791 793 796 798 801 804 806 809 811 813 816 818 819 821 822 824 826 828 829 830 832 833 834 835 836 837 838 839 840 840 841 842 843 843 844 844 845 846 846 847 847 848 848 848 848 849 849 848 847 846 844 843 842 842 841 841 841 841 839 838 837 836 834 833 833 832 832
734 737 739 740 742 745 748 752 756 760 764 767 770 773 776 779 782 784 787 790 792 795 797 800 803 806 808 810 813 815 816 818 819 821 823 825 826 827 829 830 831 832 834 835 836 837 837 838 838 839 840 840 841 842 843 844 844 844 845 845 846 846 846 847 847 846 846 844 843 842 841 840 839 839 839 838 837 836 835 834 833 832 832 831 831
729 732 734 736 738 742 745 748 752 756 759 763 766 769 772 776 778 781 783 786 789 791 794 796 799 802 805 807 809 811 813 814 816 817 819 821 823 824 826 827 829 830 831 832 833 834 835 835 836 836 837 837 838 839 839 840 841 842 843 843 844 844 844 844 844 844 844 843 841 841 839 837 837 837 837 836 836 835 834 833 832 831 831 830 829
725 728 730 734 737 740 742 745 748 751 754 758 762 766 769 772 775 777 780 782 786 788 791 793 795 798 801 803 806 808 809 811 812 814 816 818 820 821 823 824 825 827 828 829 830 831 832 832 833 833 834 834 835 836 836 837 838 839 840 841 841 841 841 841 841 842 842 841 840 839 838 836 835 835 835 835 834 834 832 832 831 830 830 829 828
721 725 728 732 735 737 740 742 744 747 750 754 758 762 765 768 771 774 776 779 782 785 787 789 791 794 797 800 802 803 805 807 808 811 813 815 817 818 820 821 822 823 825 826 827 828 829 830 830 831 831 832 833 833 834 835 835 836 837 837 838 838 838 838 838 839 839 839 838 837 836 834 833 833 833 833 833 832 831 830 830 829 829 828 827
718 722 725 729 732 734 737 740 742 744 747 750 754 757 761 764 767 770 773 776 779 782 784 786 788 790 793 795 798 800 802 803 805 807 809 811 814 815 817 818 819 820 821 822 824 825 826 827 827 828 829 829 830 830 831 832 832 833 834 834 835 835 835 835 835 835 835 836 835 834 833 833 832 831 831 832 831 830 830 829 828 828 827 826 825
715 718 721 725 728 732 735 737 739 742 744 747 750 753 757 760 763 767 770 773 776 778 781 784 786 788 789 791 794 796 798 800 801 803 805 808 810 812 814 815 816 817 818 819 821 822 823 824 824 825 826 826 827 828 828 829 829 830 831 831 831 831 831 831 831 831 831 831 831 830 830 830 830 829 829 830 829 829 828 827 827 826 826 824 823
712 714 718 722 725 729 732 734 737 739 742 745 748 750 753 756 759 763 766 769 772 774 778 781 783 785 786 788 790 792 794 796 798 800 802 804 807 809 811 813 814 815 815 816 817 818 819 820 821 822 822 823 824 825 825 826 826 827 827 827 827 827 827 827 827 827 827 827 826 826 826 827 827 826 827 828 827 827 826 826 825 824 823 822 821
709 711 714 718 721 725 728 731 734 736 739 742 745 747 750 753 756 759 762 765 768 771 775 777 780 782 784 786 787 789 791 792 794 797 799 801 803 806 808 810 811 812 813 813 814 815 816 817 817 818 819 820 821 822 823 824 824 824 824 824 824 824 823 823 822 822 822 822 822 822 822 823 824 824 825 825 825 825 824 824 823 823 822 820 819
706 708 710 714 717 721 724 727 730 733 736 738 741 744 747 749 753 756 759 762 765 768 771 774 776 779 781 783 784 786 787 789 791 793 795 797 800 802 804 806 808 808 809 810 811 812 812 813 814 815 815 816 817 819 820 821 821 822 822 822 822 822 821 820 820 819 818 818 818 819 819 820 821 821 822 823 823 823 823 822 821 821 820 819 817
702 703 706 709 713 716 720 723 727 730 732 735 737 740 744 747 750 753 756 759 761 764 767 770 773 775 777 779 781 782 784 786 787 789 791 793 796 798 801 803 804 805 806 807 808 809 809 810 810 811 812 812 814 815 817 818 818 819 819 819 819 819 818 818 818 817 816 816 815 816 816 817 818 819 820 821 821 822 821 820 819 819 818 817 816
697 698 701 705 709 713 717 720 723 726 729 731 734 737 741 745 748 751 754 756 758 761 764 766 769 771 773 775 777 779 781 782 784 786 788 790 792 794 797 799 801 802 803 804 805 805 806 806 807 808 808 809 811 812 813 814 815 815 816 817 816 815 815 816 816 815 815 814 813 813 813 814 815 816 817 818 819 819 818 817 816 816 816 816 815
692 695 699 703 707 710 714 717 720 723 726 729 732 735 738 742 745 748 751 753 756 758 760 763 765 767 769 771 773 775 777 779 780 782 784 787 789 791 794 796 797 799 800 800 801 802 802 803 803 804 805 806 808 809 810 811 811 812 813 813 813 812 812 813 813 812 812 812 811 811 811 812 813 814 815 816 816 816 815 814 814 815 815 815 815
689 694 697 700 704 707 710 714 717 720 724 727 730 733 735 738 741 744 747 750 752 754 757 759 762 764 765 767 769 771 773 774 776 778 781 783 786 788 790 791 793 795 796 796 797 798 798 799 799 800 801 802 804 805 806 807 808 808 809 808 809 810 810 811 810 810 809 809 809 809 810 811 811 812 813 814 814 814 814 813 813 814 815 815 814
687 691 694 697 701 704 707 711 715 718 721 724 727 729 731 735 737 740 744 746 748 750 753 755 758 760 761 763 765 766 768 770 772 775 777 779 781 783 785 786 788 790 791 792 793 794 794 795 795 796 797 798 800 801 803 803 804 804 804 805 806 807 807 807 807 807 807 807 808 808 809 809 810 810 811 813 813 813 813 813 813 814 814 815 814
684 688 691 695 698 702 705 708 712 715 718 720 723 725 728 731 733 736 739 742 744 746 749 751 754 756 757 759 761 762 764 766 768 770 773 775 776 778 780 781 783 785 787 788 789 790 790 791 791 792 793 794 795 797 798 799 799 800 800 802 804 804 805 805 805 805 805 806 806 807 807 808 808 809 811 812 812 812 812 812 813 813 813 813 813
680 684 688 692 696 699 703 706 710 712 715 718 720 722 724 726 729 731 734 737 740 742 744 747 750 751 753 755 756 759 761 762 763 765 768 770 772 774 776 778 779 781 783 784 786 786 787 788 788 789 790 790 791 793 794 795 795 796 798 799 801 801 801 801 802 803 803 804 804 805 806 806 807 808 810 810 810 810 811 811 811 811 812 812 812
677 681 685 689 693 697 701 704 707 710 713 715 717 719 720 722 724 727 730 732 735 737 740 743 745 747 749 751 752 754 756 757 758 760 763 766 767 769 771 773 776 778 780 781 783 783 784 784 785 786 787 787 788 789 790 791 792 794 795 797 798 798 798 798 799 800 801 801 802 804 804 805 806 807 807 807 807 807 808 808 809 809 810 810 810
674 678 682 686 690 694 698 701 704 707 710 712 714 716 717 718 720 722 725 728 730 733 735 738 740 743 745 747 749 751 752 753 754 756 759 761 763 765 767 769 772 775 777 779 780 780 781 782 782 783 784 785 785 786 787 788 790 791 792 793 794 794 794 795 796 797 799 800 801 802 803 803 803 803 803 803 803 804 805 805 806 807 807 808 808
672 675 679 684 688 691 694 697 700 703 705 708 710 713 714 715 716 717 719 722 725 728 730 733 736 738 741 743 745 746 748 749 750 752 754 756 758 761 763 766 769 772 774 775 777 778 779 780 780 781 782 782 783 783 784 785 787 788 789 790 791 791 792 793 794 796 797 799 800 801 801 801 801 801 801 801 802 803 803 803 804 804 805 806 806
669 673 677 681 685 688 690 692 695 698 700 703 705 707 708 709 710 711 713 716 719 722 725 728 730 733 736 738 741 742 744 745 746 746 748 750 753 756 759 762 764 767 769 771 774 776 777 778 779 780 780 780 781 781 782 783 784 786 787 788 788 789 790 791 793 795 797 798 800 800 801 801 801 802 802 803 803 804 804 803 803 803 803 804 805
668 671 675 678 682 684 687 689 691 693 695 698 699 701 702 704 706 707 710 712 714 717 720 722 725 728 731 734 736 738 738 739 741 742 743 745 749 751 754 757 759 761 765 769 772 774 775 776 777 778 778 779 780 780 781 782 783 784 785 786 787 787 788 790 793 795 797 799 800 800 802 804 806 808 808 807 806 806 806 805 804 803 803 803 804
666 668 671 675 678 680 682 684 686 688 690 691 693 695 697 700 702 704 706 709 712 714 716 719 721 724 728 730 731 733 734 735 738 740 741 743 746 748 750 753 756 758 763 766 769 771 772 773 774 775 776 778 778 779 779 780 781 782 783 784 786 786 787 790 792 795 798 801 802 803 805 807 808 809 810 810 808 808 808 806 805 804 803 803 804
663 665 667 670 672 674 677 678 680 682 684 685 687 690 693 696 698 700 703 706 709 712 714 717 719 722 724 726 727 730 732 734 736 738 739 741 743 746 748 751 754 756 760 763 765 768 769 771 772 773 774 775 775 776 777 777 778 779 780 782 785 786 786 789 792 794 797 799 800 801 801 801 801 801 803 804 805 806 807 806 805 804 803 803 804
659 660 662 665 667 669 671 673 674 676 677 680 683 685 688 692 695 698 701 703 706 709 712 715 717 719 721 723 724 727 729 731 734 736 737 739 742 744 747 749 752 755 757 760 762 764 766 768 769 770 771 772 772 773 774 774 774 776 777 780 783 784 785 787 789 790 790 792 794 795 795 796 797 797 797 797 799 801 803 804 804 804 803 803 804
658 659 659 661 662 664 666 667 669 670 671 674 677 680 683 686 690 694 698 701 704 707 710 712 714 717 719 721 723 725 727 729 731 734 736 738 740 742 745 748 750 753 755 757 760 762 764 765 767 767 768 769 769 770 771 771 771 773 775 778 780 781 783 785 787 788 789 791 795 797 798 799 800 800 798 796 796 797 798 800 802 803 803 803 804
662 663 663 663 665 666 665 663 664 665 666 668 672 675 678 681 684 689 694 698 702 705 708 710 712 714 716 718 721 723 725 727 730 732 734 737 739 741 744 746 749 751 753 755 757 759 761 763 764 765 766 766 766 767 768 768 769 771 774 777 778 780 782 785 788 790 792 794 795 797 798 799 800 801 800 798 796 796 797 798 800 801 802 803 804
662 664 666 668 672 673 671 665 661 661 663 664 666 670 674 677 681 685 689 694 698 702 705 708 710 712 715 717 719 722 724 726 729 731 733 736 738 740 742 744 747 749 751 754 756 758 759 761 762 762 763 763 764 764 765 766 767 770 772 775 777 780 782 785 787 790 793 794 794 794 795 796 798 800 800 797 796 796 796 797 799 800 801 803 804
662 663 667 672 676 678 678 672 663 658 659 661 663 666 670 674 678 683 687 692 696 700 704 707 709 712 714 716 719 722 724 727 729 731 734 736 738 740 742 744 745 747 750 753 755 756 757 758 759 760 761 762 763 763 764 765 767 769 771 773 776 779 782 784 787 791 793 794 794 794 795 796 798 799 798 797 796 796 795 796 797 799 800 802 803
665 665 667 672 677 681 683 678 668 658 655 657 661 664 668 672 677 682 686 691 694 698 703 707 710 712 715 717 719 722 724 727 729 731 734 737 739 741 743 744 746 748 750 752 754 755 756 757 758 760 761 762 763 764 764 766 768 770 771 773 776 779 781 783 787 790 792 793 793 793 794 796 798 798 797 796 795 795 795 795 797 798 800 801 802
668 668 668 671 676 681 683 681 673 665 658 656 659 663 667 671 676 681 685 690 695 700 705 708 711 713 715 717 720 722 724 727 729 732 735 737 739 740 742 743 745 747 750 752 754 756 757 758 760 761 761 762 763 764 765 767 769 770 772 775 777 779 781 784 786 788 790 791 791 792 793 794 796 796 796 795 794 794 795 795 797 798 800 800 801
667 668 669 670 674 679 682 681 676 671 666 662 662 664 668 671 676 680 685 691 696 701 706 710 713 715 716 718 720 722 724 727 730 732 735 736 737 739 741 743 745 747 749 752 755 757 758 760 761 762 764 764 765 766 767 768 769 771 774 776 778 779 781 784 786 787 788 789 790 790 791 792 793 793 793 793 794 794 795 795 797 798 799 799 800
668 668 669 668 670 674 679 680 677 674 672 670 668 668 670 673 677 681 686 692 697 702 707 710 713 715 717 718 721 723 725 728 730 732 734 735 736 738 740 743 746 749 751 753 756 757 759 760 762 763 765 767 768 769 769 770 771 773 775 777 779 780 782 783 784 786 787 787 788 789 790 790 791 792 792 792 793 794 795 796 797 798 799 799 798
670 669 670 670 670 671 674 677 676 674 673 672 671 671 673 675 678 682 687 692 697 703 707 710 713 715 717 720 722 724 726 728 730 732 735 737 738 740 742 745 748 750 752 754 756 757 759 761 762 764 766 768 770 771 772 773 774 776 777 778 780 781 782 784 785 785 786 787 787 788 788 789 790 792 792 792 793 795 795 796 797 798 798 797 797
674 673 673 674 674 674 675 676 675 672 672 672 672 674 676 677 680 684 689 694 699 704 707 710 713 715 718 721 723 725 727 730 732 734 736 739 741 743 744 747 749 751 753 755 756 758 760 762 764 765 766 768 770 772 773 774 776 777 778 778 779 780 782 783 784 785 785 786 786 787 788 789 790 792 792 793 794 795 795 796 796 796 796 796 795
679 678 678 679 680 680 682 680 676 673 674 675 676 677 679 680 683 686 691 697 702 706 709 712 714 716 719 722 724 726 729 733 736 738 740 743 744 746 748 749 750 752 754 757 758 760 761 763 764 766 767 769 771 772 772 774 775 775 776 777 779 780 782 782 783 784 784 784 785 787 788 790 791 792 792 793 793 794 794 795 795 795 794 794 794
682 681 682 684 684 684 685 684 681 678 679 680 680 681 683 685 688 691 695 700 704 708 711 713 715 718 721 723 726 729 733 737 740 743 746 748 749 750 752 752 753 753 756 758 761 762 763 764 765 767 768 771 772 772 772 773 775 776 777 778 779 781 782 783 784 784 784 785 786 787 789 790 791 792 792 791 792 793 794 794 794 794 793 793 793
686 684 683 684 684 684 686 686 686 686 686 686 686 687 690 693 695 698 702 705 709 711 714 716 718 720 722 725 728 732 736 740 743 746 749 751 753 754 755 756 756 757 758 760 762 764 764 765 767 768 770 772 774 773 774 775 777 777 778 778 780 781 782 784 785 785 785 786 787 788 789 790 791 791 791 791 792 794 794 794 794 793 793 793 793
692 690 687 685 684 686 689 691 690 690 692 693 694 696 699 701 704 706 708 709 712 715 717 720 722 723 725 727 730 734 738 742 744 747 749 751 753 755 757 757 758 760 762 763 764 765 767 768 769 771 772 774 775 775 776 777 778 779 779 780 781 782 783 785 786 786 786 787 788 789 790 790 791 792 792 792 793 794 793 793 793 793 793 793 793
697 695 694 691 689 689 693 697 697 695 695 698 702 705 707 709 711 713 713 714 716 718 721 724 726 728 729 731 732 734 738 742 746 749 751 753 754 756 757 758 760 763 766 768 769 769 770 771 772 773 775 776 777 778 779 780 780 781 782 782 783 784 785 786 787 787 788 788 789 789 790 791 792 793 793 793 793 793 793 793 793 793 792 792 792
701 700 698 697 696 695 697 701 704 702 699 700 705 711 716 718 719 719 719 720 722 724 726 729 731 732 734 736 736 737 738 741 745 750 754 756 757 757 757 758 762 766 769 771 773 773 774 775 776 776 777 778 779 780 781 782 782 784 784 785 785 786 786 787 788 788 789 789 789 790 791 792 793 793 793 793 793 793 793 793 792 792 792 791 791
706 704 703 703 703 702 703 706 709 710 707 705 706 713 720 725 727 727 727 726 728 729 731 733 736 737 738 740 742 744 745 745 745 749 755 758 759 759 760 761 764 767 770 772 774 775 776 778 779 780 781 781 781 782 783 784 785 786 786 786 786 787 787 788 788 789 789 789 789 790 791 792 792 792 792 792 792 792 792 792 792 792 791 791 791
711 710 710 709 709 709 710 711 713 715 714 712 711 715 722 728 733 735 735 733 734 735 736 737 739 741 743 744 747 750 753 752 749 749 754 758 760 762 764 766 768 769 771 773 776 778 779 781 782 783 784 784 784 784 785 786 787 787 787 787 787 788 788 789 789 789 790 790 790 791 791 792 792 792 792 792 792 792 792 792 792 792 791 791 790
716 716 717 717 716 716 717 717 717 718 718 717 717 720 724 730 737 741 742 740 739 740 742 743 744 745 747 750 752 754 756 756 753 753 757 760 762 765 768 770 771 772 773 775 777 780 783 784 785 786 787 786 786 786 787 788 788 789 789 789 789 789 790 790 790 791 791 791 791 791 792 792 792 793 793 793 792 792 792 792 792 792 791 790 790
Wind_Speed
35 35 35 34 34 35 36 36 34 32 31 30 30 29 29 28 27 26 25 26 26 24 25 26 26 25 25 23 23 22 22 21 20 20 20 18 17 15 14 15 15 14 12 12 11 10 10 11 11 10 10 10 9 9 8 8 9 9 9 9 10 10 10 11 9 11 15 14 14 16 15 14 15 15 16 17 18 19 21 22 22 23 25 26 27
36 36 36 35 35 35 35 36 35 33 31 31 30 30 30 30 28 27 26 26 26 26 26 26 26 26 25 25 24 24 24 24 22 21 21 20 19 17 16 16 16 15 14 14 13 13 12 12 12 12 12 12 11 10 10 10 10 11 12 12 12 12 12 13 12 11 13 14 14 16 16 16 17 17 18 19 20 21 21 22 22 22 23 23 24
37 37 36 36 36 36 35 35 35 34 32 31 31 30 30 30 29 28 27 26 27 27 27 27 27 27 26 26 26 25 25 26 23 22 22 22 21 19 17 17 18 17 16 15 15 14 14 13 13 13 13 13 13 13 11 11 12 12 12 13 13 13 12 13 14 14 14 15 16 17 17 17 18 19 19 19 20 21 21 21 21 20 20 20 21
37 36 36 36 36 36 36 35 34 34 33 32 32 31 29 29 29 29 28 26 27 28 28 28 28 28 28 27 27 26 26 27 26 24 24 24 23 22 20 19 19 19 18 17 16 15 15 15 15 14 14 14 14 14 13 13 13 13 13 12 12 13 13 13 14 15 14 15 17 19 19 19 20 21 20 20 21 21 21 21 20 19 20 20 20
36 37 37 36 36 36 36 35 35 35 34 33 32 32 30 29 29 30 29 27 27 28 29 29 29 29 29 28 28 28 27 28 28 26 25 25 25 24 22 21 21 21 20 19 18 17 17 17 16 16 16 16 16 15 14 14 14 14 14 14 13 14 14 15 16 16 16 17 19 20 20 20 20 21 19 19 20 19 19 19 18 18 19 20 19
36 36 36 36 37 37 37 36 36 36 36 34 33 33 31 30 30 30 30 29 29 29 30 30 30 30 30 29 29 30 29 28 29 28 26 25 25 24 23 22 22 22 21 20 20 19 19 18 18 17 17 17 17 16 16 15 15 15 15 15 14 14 14 15 16 16 17 19 20 21 20 20 20 21 19 18 18 18 18 18 19 19 20 20 18
35 36 35 36 37 37 38 38 37 37 36 35 33 33 32 31 31 31 31 30 30 29 29 30 30 30 31 30 29 30 30 29 30 30 27 26 26 25 24 23 23 23 22 22 21 20 21 20 20 19 19 19 19 17 16 16 16 16 16 16 15 15 15 15 15 16 18 19 20 21 20 20 19 20 18 15 15 18 19 19 20 22 21 20 18
35 36 35 36 37 38 38 38 38 37 37 36 35 34 33 33 32 32 32 31 31 30 30 30 31 30 31 31 29 29 30 30 30 31 30 27 27 26 25 24 23 23 23 22 21 21 21 21 20 20 20 21 21 20 18 17 17 17 17 17 16 16 16 16 16 16 18 19 20 20 20 19 19 18 18 16 17 19 20 20 22 22 20 17 16
35 35 35 36 38 39 38 37 37 37 37 37 36 35 35 34 33 33 34 32 31 31 30 30 31 29 29 31 30 29 30 30 30 32 32 30 27 27 26 25 24 23 23 22 22 22 22 21 21 21 22 22 22 22 20 19 18 18 17 17 17 17 16 16 16 16 17 18 19 19 19 19 19 18 17 17 17 18 19 18 17 16 15 14 14
35 35 36 36 37 38 38 37 37 38 38 38 37 36 35 35 34 34 35 34 32 31 31 30 30 30 29 30 30 29 29 29 31 32 34 33 30 27 26 27 25 24 24 23 23 22 22 22 22 21 22 23 24 24 23 22 21 20 19 17 16 17 17 17 17 17 18 18 18 18 18 19 19 18 17 16 16 17 16 14 12 13 14 13 13
35 35 35 34 34 36 37 37 38 39 39 39 39 37 35 35 34 33 34 35 34 32 32 31 30 30 29 29 29 29 28 29 31 34 35 35 33 29 27 27 27 26 25 25 24 24 23 23 23 22 22 23 24 24 24 24 23 22 22 21 19 18 18 18 18 17 17 17 18 18 17 19 20 18 17 17 16 15 14 13 13 14 13 11 11
34 33 32 32 33 35 36 36 37 39 39 40 40 39 36 35 35 33 33 35 35 33 33 32 31 30 30 29 29 29 29 29 31 34 36 35 35 32 29 27 27 27 26 25 25 24 24 23 23 22 22 22 22 22 23 24 24 24 24 25 25 24 23 23 22 21 20 19 18 19 19 20 20 19 17 16 15 16 16 15 14 12 12 12 13
33 32 31 32 33 35 36 36 36 38 39 40 40 40 37 35 35 34 32 33 35 34 33 33 32 31 30 30 30 29 28 29 31 33 36 37 36 34 30 28 27 27 27 27 26 25 25 25 24 23 22 21 22 22 23 24 25 26 26 26 27 28 28 28 28 28 28 26 24 25 25 23 21 21 20 18 18 19 17 15 14 12 13 15 17
30 32 32 32 33 34 35 35 35 37 38 38 39 39 38 36 35 35 32 31 33 33 32 31 32 31 31 31 31 29 28 29 31 33 35 37 37 35 32 28 26 26 26 27 27 26 26 26 26 26 24 23 21 22 24 25 25 25 26 26 27 27 27 27 28 28 30 30 31 31 31 28 26 26 25 23 22 21 17 14 12 12 16 19 21
28 32 32 31 33 34 35 35 35 35 36 37 37 38 38 36 35 35 33 31 32 33 32 30 31 32 31 30 30 30 28 29 31 33 34 36 37 38 35 29 25 25 25 26 27 27 27 27 27 27 26 25 24 22 22 23 23 22 23 24 25 26 26 26 26 25 26 27 29 30 29 26 25 25 24 21 19 17 15 12 12 15 19 21 21
27 31 32 31 33 34 35 34 34 35 36 36 35 36 37 37 36 35 33 31 31 31 31 30 30 31 31 30 29 28 28 29 31 32 34 35 36 37 37 33 28 24 23 24 26 27 27 27 27 27 26 26 25 24 23 23 22 21 21 21 21 22 23 23 23 22 22 23 23 24 23 22 22 21 20 17 16 15 14 13 16 20 20 18 17
26 31 33 32 33 34 35 35 34 34 35 35 35 36 36 37 36 35 33 31 29 30 30 29 29 29 30 31 30 28 28 29 31 32 34 36 36 37 38 36 32 29 25 23 23 25 26 27 27 27 27 26 26 25 25 24 23 23 22 21 20 20 21 20 20 21 23 23 23 23 22 21 21 21 20 19 20 19 18 19 21 19 15 13 13
28 32 35 34 34 35 36 35 35 34 35 35 35 35 35 35 35 35 33 31 29 29 30 29 29 29 30 31 31 29 28 28 30 32 33 36 37 38 38 36 33 31 29 26 24 24 25 28 28 28 28 27 26 25 25 25 25 25 24 22 21 21 22 21 20 20 22 23 24 25 26 25 24 24 23 22 20 18 18 19 20 16 12 11 11
30 32 35 35 34 34 34 35 35 34 35 35 34 34 35 34 34 34 33 31 29 28 29 28 28 29 29 30 31 31 29 29 30 31 32 35 37 38 37 34 30 28 28 27 27 27 27 28 30 31 30 29 27 25 25 26 27 28 26 24 23 24 24 22 21 20 21 20 18 19 23 25 24 21 17 15 14 14 14 17 17 14 12 12 10
34 32 34 33 32 33 34 35 35 34 34 34 32 32 33 32 32 33 32 31 29 28 28 28 27 28 28 29 31 32 31 30 31 31 31 33 36 37 35 32 30 28 27 26 27 28 29 30 30 32 33 33 30 28 26 26 27 28 27 25 25 25 23 21 19 18 18 16 12 10 11 14 15 12 10 10 12 14 15 17 18 16 12 10 8
34 31 32 33 33 34 34 34 34 34 34 33 32 31 32 31 32 33 31 30 30 29 28 28 27 26 27 28 29 31 31 31 32 32 33 34 35 36 36 34 32 30 29 28 27 26 28 30 31 33 34 34 34 32 30 28 27 28 28 28 27 24 21 20 19 16 13 13 13 11 10 10 10 9 10 10 11 12 11 10 10 11 8 7 7
32 31 32 34 33 33 34 34 34 34 33 34 33 32 33 32 32 33 32 30 31 31 29 28 27 26 26 27 27 29 31 32 32 32 33 35 36 37 38 37 35 33 29 28 28 26 27 29 31 32 33 34 33 33 34 33 31 30 31 30 28 25 23 22 20 17 14 13 13 13 12 12 10 9 9 9 9 8 4 0 1 3 4 6 8
32 31 31 33 32 31 33 34 34 33 33 34 34 32 33 33 32 33 33 31 30 31 30 28 26 25 25 26 27 27 28 31 33 33 33 35 38 40 40 39 37 35 31 28 27 27 27 27 28 29 30 31 31 31 32 33 34 34 34 32 30 27 26 25 23 22 20 17 15 13 12 12 12 10 9 8 7 6 4 4 5 7 8 10 10
32 30 31 33 31 30 31 32 33 32 31 33 33 32 33 33 32 32 33 31 28 29 29 28 26 24 23 24 25 26 27 29 34 36 35 35 37 40 41 41 39 36 32 28 25 25 26 26 27 27 27 28 28 28 28 29 31 32 32 31 30 29 29 28 27 24 22 20 18 15 13 13 13 11 9 7 6 7 9 10 10 10 11 11 10
31 30 31 32 30 30 30 31 31 31 31 32 32 32 32 32 31 31 31 30 28 27 27 28 27 25 24 23 23 25 26 27 31 35 36 35 36 38 40 41 40 38 35 30 25 23 23 24 26 26 26 26 26 25 26 27 27 27 26 25 26 26 27 27 25 21 19 18 16 14 13 14 13 12 10 9 9 9 9 9 9 10 11 10 10
31 29 30 30 30 30 30 30 31 31 31 32 32 31 32 31 30 30 30 29 28 27 26 27 27 26 25 23 23 24 25 25 28 31 34 35 36 37 39 40 41 40 36 32 27 24 21 19 20 22 24 25 26 26 26 26 25 25 24 22 22 23 24 24 22 20 18 16 13 11 11 11 12 12 13 13 11 8 6 6 8 10 10 10 10
29 28 29 29 29 29 30 30 31 31 31 32 31 31 32 31 30 29 29 29 27 27 27 26 26 25 25 25 24 24 25 25 26 29 34 36 37 38 38 39 41 42 40 35 30 26 22 17 15 16 16 19 23 25 26 26 25 24 23 22 21 21 22 21 20 20 18 15 11 9 8 9 10 11 11 10 8 5 4 5 7 9 9 9 10
28 27 28 29 28 28 30 31 31 31 31 32 32 32 32 32 30 30 32 31 29 28 28 27 27 26 26 26 25 24 25 25 26 29 34 37 39 39 39 40 42 44 44 41 34 27 23 19 16 14 13 14 18 20 21 22 22 21 21 20 20 20 20 18 18 18 17 13 11 10 10 9 7 6 5 5 5 5 5 5 6 7 7 7 8
28 27 27 28 28 28 30 31 31 30 31 31 31 31 32 32 30 29 31 32 32 30 29 29 29 28 26 27 26 25 25 27 29 31 34 36 38 39 40 41 42 43 43 41 36 29 23 21 18 17 15 15 16 16 16 17 18 18 17 17 17 17 17 16 16 16 15 11 9 9 7 3 2 1 2 4 4 5 6 6 5 5 5 6 8
26 26 26 28 28 28 29 31 31 31 30 30 29 27 27 28 28 29 30 32 32 32 30 29 29 29 26 26 28 28 28 29 29 28 29 31 34 37 38 39 40 40 37 37 37 31 24 21 20 18 17 16 16 16 16 17 17 17 17 16 15 14 15 16 16 15 10 5 6 10 9 6 2 2 4 4 3 4 6 5 4 4 5 6 7
23 24 26 28 30 31 30 30 33 32 29 30 31 28 24 22 22 25 29 31 30 30 29 28 28 28 27 27 29 29 27 26 27 27 27 26 29 33 36 36 36 36 34 35 36 31 24 21 20 19 18 18 18 18 19 19 20 19 17 15 15 13 11 11 12 13 10 6 7 7 6 8 9 7 6 4 3 5 6 5 4 3 3 4 6
23 25 27 28 30 33 32 30 32 31 28 29 32 31 27 23 18 17 22 28 28 26 26 25 26 27 28 26 27 29 27 24 24 25 25 22 23 27 29 29 30 31 32 32 32 29 24 22 20 19 19 19 20 21 21 20 21 20 17 15 13 10 12 15 14 13 15 16 17 16 15 14 12 11 10 9 6 5 5 4 4 2 1 3 4
19 21 25 28 28 30 32 31 31 30 28 29 30 30 29 27 22 17 17 21 23 23 23 23 23 25 24 21 22 26 28 25 22 22 21 21 21 23 24 23 23 26 28 29 27 24 23 22 19 19 19 19 20 22 21 19 18 19 18 15 13 14 16 14 12 15 17 18 16 14 11 10 10 10 10 9 8 6 5 5 5 3 2 3 5
10 10 10 13 17 22 28 31 31 29 28 30 31 30 28 28 28 25 20 17 17 18 19 20 20 21 21 18 17 19 22 23 21 20 20 21 22 24 24 23 22 23 25 27 24 21 21 21 20 19 19 19 19 20 18 15 17 19 18 15 13 14 14 13 13 14 15 14 12 10 8 9 10 11 10 8 7 5 4 4 4 3 4 3 5
9 11 16 14 13 20 26 28 30 28 27 30 32 29 27 27 29 28 23 17 16 16 16 17 18 18 18 17 16 15 18 20 21 20 20 22 23 25 25 24 24 24 24 23 21 19 18 19 18 17 16 16 16 17 18 19 20 21 20 16 14 13 14 15 15 15 15 13 11 10 10 12 11 9 7 6 6 4 3 2 2 3 4 4 4
1 1 9 15 15 22 30 29 28 28 27 28 31 29 26 27 27 26 22 19 18 18 17 16 16 16 16 17 17 17 18 19 19 19 20 20 22 23 23 21 22 23 22 17 15 14 13 13 14 14 14 14 15 17 19 20 19 19 18 16 14 14 15 15 16 14 12 11 11 10 9 8 7 5 4 3 4 3 3 2 2 2 2 2 4
10 11 7 6 11 22 33 32 22 24 28 28 27 25 24 24 24 22 19 17 18 19 19 17 16 16 17 18 19 19 19 18 18 17 16 17 17 18 17 15 16 18 16 12 11 11 10 9 11 12 13 14 15 16 18 19 18 17 16 15 15 15 14 14 15 14 12 10 10 9 8 6 4 3 2 1 1 2 2 2 2 1 1 2 5
11 12 11 9 7 9 20 24 16 13 22 25 24 22 22 22 22 21 19 17 17 17 16 15 14 14 16 17 18 19 18 17 16 14 14 14 15 14 13 14 15 15 13 10 9 10 10 9 10 12 13 15 16 17 19 20 20 18 16 14 15 15 14 14 14 14 13 11 8 7 8 8 6 4 2 0 1 1 2 2 1 0 1 3 6
12 10 6 6 9 12 7 5 3 4 12 18 20 21 22 22 23 23 21 19 17 15 13 12 11 11 14 18 19 19 18 17 17 17 17 16 15 14 14 15 15 14 13 12 11 11 12 12 13 13 15 17 18 18 19 20 19 17 15 15 15 14 14 15 14 13 12 10 8 8 9 8 6 6 5 3 2 4 3 2 1 2 5 6 6
16 14 9 5 5 9 11 11 12 13 13 14 18 21 23 23 24 23 21 19 18 15 13 12 10 10 15 21 21 19 19 18 18 19 20 18 18 18 18 18 17 17 17 17 17 17 17 16 16 16 17 17 16 15 15 16 16 15 14 15 15 13 13 14 13 10 10 10 9 10 9 8 5 5 4 3 2 3 3 2 2 5 8 8 8
18 19 17 13 10 11 12 14 18 20 19 18 19 20 21 22 22 21 21 20 19 17 15 14 12 13 19 21 19 18 20 21 21 21 20 20 20 21 21 20 21 21 21 21 20 20 20 19 19 19 17 15 13 13 13 14 14 15 13 12 11 9 9 10 11 10 10 8 6 5 6 6 3 3 2 3 1 1 3 3 5 8 10 9 8
20 22 21 20 19 17 15 16 21 25 25 25 25 25 24 24 24 24 24 23 22 21 20 17 16 18 19 18 17 20 22 23 23 23 23 22 22 22 23 23 23 23 23 23 22 22 23 23 22 20 18 17 15 14 14 12 12 13 12 10 10 9 8 7 9 9 8 5 5 6 8 8 3 1 2 4 4 3 5 8 9 9 9 9 9
21 25 25 23 24 22 18 16 21 26 26 26 27 28 28 28 28 29 29 26 24 24 24 23 23 23 22 21 23 25 25 24 23 24 24 23 23 23 23 22 23 22 22 21 21 23 25 24 21 19 18 18 17 16 16 15 15 16 15 14 13 13 13 13 13 12 11 12 13 10 9 8 6 3 4 6 6 7 8 10 10 9 9 10 10
20 23 23 23 25 26 24 23 23 25 26 28 30 30 29 28 28 28 29 28 27 27 27 27 27 27 27 27 27 27 26 24 24 23 23 22 23 22 22 22 22 22 21 20 19 21 22 20 18 17 17 17 16 15 15 15 15 16 16 15 14 13 12 13 13 12 11 12 12 11 9 9 8 8 8 8 9 10 12 12 11 11 12 13 13
20 22 23 23 24 26 27 26 27 26 26 27 29 29 28 27 26 26 27 27 26 26 26 27 27 29 29 29 29 29 27 26 25 23 23 23 23 23 23 24 24 23 22 21 20 19 18 17 17 17 17 16 14 13 13 13 12 12 11 11 12 11 11 10 10 9 7 6 7 7 7 7 8 10 10 9 9 11 12 13 13 13 13 13 14
19 21 23 25 25 25 25 25 26 27 26 25 25 26 27 27 26 25 26 26 25 26 27 28 30 31 31 31 31 30 28 27 26 25 24 24 24 23 23 23 23 23 22 22 22 21 21 20 20 20 20 18 16 16 15 15 14 13 11 10 11 11 9 8 7 6 5 3 2 2 3 4 6 8 9 9 9 11 11 12 13 14 14 14 14
21 21 22 24 26 26 24 23 25 27 27 26 24 24 25 26 27 27 28 29 29 29 29 29 30 31 32 32 32 30 28 27 27 27 26 25 25 24 24 24 24 24 23 23 23 24 24 24 23 23 22 21 20 20 20 19 17 16 15 14 13 12 10 9 8 7 6 5 4 4 5 5 5 6 7 7 7 9 10 10 11 11 12 13 13
23 23 23 23 23 25 25 24 23 24 26 27 26 23 22 23 24 26 28 29 30 30 30 30 30 31 31 30 30 31 31 30 29 28 27 27 26 26 27 27 27 26 25 24 24 25 25 25 24 23 23 23 23 23 22 21 20 19 18 16 15 15 13 11 10 10 8 6 7 8 8 6 4 4 4 5 5 6 7 8 9 9 10 11 12
25 26 26 25 24 24 25 25 25 24 26 28 29 26 23 22 21 22 24 27 27 28 28 28 28 29 30 30 29 29 29 30 31 31 29 28 28 28 29 30 29 29 28 26 25 25 25 25 24 24 24 24 24 24 23 21 19 19 18 16 15 14 12 11 12 11 10 9 10 10 7 5 4 3 4 4 4 5 6 6 8 9 10 11 11
23 25 26 27 27 26 25 25 26 26 27 29 31 30 27 25 23 22 24 26 26 26 26 27 28 29 30 30 30 29 28 29 31 32 31 30 29 30 30 29 29 28 27 26 25 24 24 24 23 23 23 24 24 23 22 21 19 18 17 15 13 12 11 11 12 11 11 11 12 11 8 7 7 7 7 6 6 6 7 7 9 10 10 10 11
23 23 23 25 26 26 26 26 26 25 26 28 30 29 28 26 24 22 23 25 26 26 25 25 26 27 28 28 28 29 28 28 30 31 31 30 30 29 29 28 28 27 27 26 25 24 23 22 21 21 21 22 22 22 21 20 18 16 14 13 12 12 11 11 12 12 12 13 13 11 10 9 9 9 8 8 8 9 9 9 9 9 10 11 12
Wind_Direction
189 189 189 189 188 189 191 192 193 193 194 195 196 198 200 200 201 202 202 202 203 203 198 195 196 196 195 195 194 195 197 198 201 203 204 206 206 207 211 215 215 217 221 223 223 225 227 230 234 237 237 237 238 240 245 241 231 228 233 238 242 239 235 233 237 258 275 281 284 288 292 291 287 282 277 278 278 278 279 280 281 283 284 287 288
188 188 188 189 189 188 188 190 191 192 193 194 195 197 199 200 200 201 202 201 201 202 200 197 197 197 197 197 196 196 197 198 199 202 205 206 206 207 211 214 215 216 218 222 224 224 226 229 232 234 235 236 237 236 238 242 235 230 231 231 236 242 238 235 236 247 265 274 277 280 283 282 280 280 280 280 281 281 279 280 282 285 288 292 294
189 187 188 189 188 187 187 188 189 190 190 192 195 196 198 199 199 200 201 201 199 201 200 198 198 199 199 199 198 197 198 198 198 201 204 207 207 207 209 213 214 215 217 220 222 223 225 229 230 231 232 233 234 234 235 239 241 240 239 234 231 234 237 240 241 244 256 268 273 275 278 278 277 279 281 282 285 286 285 285 287 288 290 293 295
189 186 186 188 187 186 186 187 187 189 190 193 195 196 196 197 198 199 200 200 198 199 199 199 200 200 200 200 199 198 198 198 198 201 205 208 209 208 208 210 212 214 216 218 221 222 223 227 230 230 231 233 234 234 235 238 243 247 250 249 244 242 245 248 249 252 257 265 270 273 275 277 279 281 284 284 285 284 285 288 289 290 292 293 295
189 186 186 186 185 186 186 187 188 189 191 193 194 195 195 195 196 197 199 199 197 197 198 198 200 200 200 201 200 200 199 198 199 201 204 209 211 210 209 211 213 215 217 218 220 222 224 226 229 230 232 235 236 235 235 236 238 243 246 249 251 252 253 253 255 259 261 264 269 273 276 278 281 283 284 285 284 283 284 286 287 289 291 294 297
190 187 187 186 185 186 186 187 189 190 191 193 193 195 195 194 194 195 197 198 196 196 197 197 199 201 200 201 201 201 200 199 199 200 202 206 209 210 211 212 214 215 218 220 220 222 226 227 228 230 231 234 237 236 236 237 237 240 244 246 248 251 254 254 254 257 260 263 268 272 275 276 278 280 282 283 281 280 281 283 285 287 287 289 294
190 187 188 188 186 187 187 187 189 190 191 193 193 194 195 194 194 194 196 198 197 195 196 197 199 201 202 202 202 202 201 201 201 202 202 205 207 209 211 212 214 216 218 220 221 222 225 227 228 229 229 232 236 236 235 236 237 239 243 245 247 250 252 254 256 257 259 262 265 269 273 275 276 277 281 285 283 279 279 277 279 281 280 279 285
191 188 188 189 188 188 189 188 190 191 191 193 194 194 195 195 195 194 195 197 198 197 195 196 198 201 202 203 203 203 203 202 202 203 204 206 207 208 210 211 214 216 218 219 221 222 223 226 228 229 229 229 232 235 236 236 238 240 242 243 245 247 248 251 255 258 259 263 266 270 274 277 278 279 282 284 279 277 277 271 270 275 278 279 284
192 189 189 191 190 189 189 188 189 190 191 193 194 194 195 196 195 194 194 196 199 199 197 195 196 199 201 203 204 204 204 204 204 204 204 205 206 208 210 212 214 216 218 220 222 224 225 227 229 230 230 229 231 233 235 235 238 241 243 243 242 243 245 246 249 253 258 263 267 272 276 278 279 280 280 276 273 278 282 277 274 283 294 297 297
191 190 191 193 191 189 188 187 188 189 190 192 193 194 195 196 197 195 194 196 199 200 200 197 195 197 200 201 202 205 206 206 206 206 206 206 206 207 209 212 214 216 218 220 221 224 226 228 232 233 232 231 232 235 237 237 237 239 241 241 239 239 241 243 245 248 253 258 262 268 272 274 277 278 278 279 283 288 291 293 304 316 320 316 309
191 191 192 193 190 188 188 188 187 188 189 191 193 194 195 196 198 197 194 195 198 200 201 199 195 196 199 200 201 204 206 207 207 207 208 208 206 207 209 211 213 216 218 219 220 223 225 229 233 235 236 236 235 236 239 240 239 240 241 240 239 239 240 241 243 244 248 253 259 263 266 270 276 279 282 288 293 294 299 312 324 326 324 321 310
192 193 191 190 190 189 189 189 188 188 189 190 192 194 195 195 197 198 196 194 196 199 202 202 199 196 198 201 202 204 206 209 208 208 209 209 208 208 209 210 212 215 218 220 221 223 225 228 232 234 237 240 239 238 238 240 242 246 248 247 246 247 247 247 248 249 250 254 259 261 263 269 277 282 285 290 294 296 301 307 311 315 316 310 299
191 191 190 189 190 190 189 190 189 189 189 190 191 192 194 195 196 197 197 195 195 198 201 204 203 199 198 200 203 206 208 210 211 209 209 210 211 210 210 212 213 214 217 221 223 224 225 228 231 233 235 237 238 236 236 240 244 247 250 253 253 254 254 254 254 255 255 256 258 259 260 264 271 275 277 280 286 292 295 295 298 304 303 299 295
190 188 189 188 190 190 190 191 191 190 191 190 190 192 193 194 195 195 197 195 195 198 201 204 206 204 201 201 203 206 210 211 212 211 210 211 213 212 212 213 215 216 218 220 222 225 226 228 230 233 235 237 238 235 233 236 242 245 248 250 252 255 256 257 257 257 256 254 253 256 259 260 262 267 273 278 280 282 282 284 293 300 300 300 299
190 186 188 187 188 190 191 192 192 191 191 191 191 192 193 194 194 194 196 196 196 197 200 204 207 208 207 204 203 206 211 213 213 213 212 212 214 214 213 214 216 218 220 222 223 225 226 228 230 232 234 236 238 236 233 231 235 242 245 247 251 254 256 259 262 262 260 257 255 257 262 264 265 269 274 276 274 272 272 277 293 304 304 301 299
191 184 186 187 188 189 190 192 193 191 191 191 192 193 193 194 194 193 195 197 197 197 200 204 207 209 210 209 207 209 212 215 215 214 213 214 214 214 215 216 218 222 224 225 225 225 226 227 230 232 234 235 236 234 233 232 232 235 241 245 250 253 257 264 269 269 267 265 263 264 268 271 273 270 265 259 258 264 273 282 293 300 299 294 294
193 185 187 188 187 189 190 191 192 191 191 192 192 193 194 194 194 193 193 196 197 196 198 202 206 207 209 211 212 212 213 216 217 216 215 215 214 213 215 217 220 225 227 227 226 226 226 227 228 230 232 234 234 233 232 232 231 232 236 241 245 249 254 261 269 272 272 272 271 271 272 273 270 262 256 255 260 269 278 284 288 291 291 290 295
198 188 190 190 188 189 190 191 192 191 192 193 193 193 194 194 194 193 193 195 198 197 196 199 204 206 208 210 213 215 215 216 218 218 217 215 213 212 214 215 219 224 228 229 229 227 227 228 229 230 231 232 234 234 231 230 229 230 233 238 243 249 253 257 263 268 271 274 274 269 265 263 261 260 263 266 269 273 276 279 282 282 277 280 288
202 192 191 191 189 189 189 191 192 191 192 193 193 192 192 193 194 194 194 197 198 197 196 199 203 206 208 209 211 213 216 218 219 218 217 215 212 211 211 213 216 222 227 229 230 229 230 231 231 231 233 234 234 233 233 230 229 230 231 235 242 248 252 257 260 262 266 272 276 270 263 260 260 262 267 271 274 278 278 279 281 274 260 262 272
204 196 191 189 189 188 189 191 192 192 192 192 191 191 190 191 194 195 196 198 199 198 197 199 203 206 207 208 209 210 214 219 221 219 217 215 212 209 208 209 213 218 223 226 229 230 231 233 234 235 236 236 235 235 234 233 231 231 231 231 236 244 249 252 255 258 260 261 266 272 264 255 252 252 262 274 281 283 285 284 279 270 259 258 267
201 196 189 188 189 188 189 192 191 192 192 192 191 191 190 191 193 194 196 198 199 200 199 200 203 207 207 208 209 208 211 216 220 220 218 216 213 209 208 209 212 216 220 223 225 227 229 232 234 236 238 239 238 236 235 234 234 233 231 231 234 240 243 242 243 250 257 257 259 265 259 247 245 253 268 281 286 284 286 286 273 260 257 268 281
196 194 189 189 191 190 190 192 192 193 193 192 192 192 191 192 193 193 196 199 199 200 202 201 202 206 207 208 210 210 210 213 218 220 219 218 216 212 210 213 216 216 218 222 224 225 228 231 233 236 239 241 240 238 237 237 236 235 236 237 237 237 239 241 245 254 266 267 264 265 262 255 255 264 274 285 291 287 281 60 218 240 259 281 292
191 191 188 188 192 192 191 191 192 193 193 193 193 193 192 193 193 193 195 198 198 199 202 203 203 204 205 208 210 212 211 212 215 218 219 219 219 216 215 216 218 217 217 220 224 226 228 230 233 236 239 241 241 240 238 238 238 239 241 241 239 238 240 245 251 259 266 268 265 263 260 255 258 273 284 287 288 280 274 295 307 304 303 303 306
186 187 185 187 190 191 190 191 193 194 194 194 195 194 192 192 193 192 193 196 196 196 198 202 206 207 206 206 209 212 212 213 214 216 218 219 219 219 219 219 218 218 218 220 224 227 229 231 233 234 237 240 241 240 237 237 237 239 242 244 244 245 246 248 252 256 258 259 258 254 252 254 260 269 273 267 258 261 274 288 296 302 309 316 321
182 183 183 186 189 189 190 192 193 194 195 195 196 196 193 192 192 191 191 194 195 195 195 198 204 209 210 209 208 210 210 211 213 215 216 219 220 220 222 221 219 218 218 220 224 230 232 231 231 232 234 236 238 237 235 233 232 234 238 242 244 246 248 249 249 247 246 245 242 239 247 257 258 253 247 246 251 262 273 280 287 301 316 325 321
179 181 181 185 189 190 191 193 193 195 197 197 198 197 194 192 191 189 189 193 195 194 194 196 200 206 211 211 209 209 208 206 208 212 214 217 220 221 222 222 221 219 218 219 223 230 234 232 229 230 230 231 233 234 232 229 227 227 230 233 235 238 242 244 240 234 233 230 225 229 241 242 233 223 221 227 240 255 261 268 290 312 326 330 325
177 179 180 184 190 193 195 194 193 196 198 198 198 198 196 195 193 188 188 192 194 193 193 194 196 201 207 211 210 210 208 205 204 208 212 215 218 219 220 221 221 220 218 217 220 226 230 230 229 229 229 228 228 230 230 226 222 221 223 227 230 233 237 238 234 229 223 217 213 216 212 199 196 200 208 217 227 231 232 257 298 322 334 339 339
177 179 179 183 190 195 196 194 193 196 199 198 197 197 196 196 193 190 189 191 192 191 192 194 196 198 202 207 209 209 210 208 205 207 212 214 215 215 217 218 219 219 218 218 219 222 228 232 235 234 231 224 219 220 222 221 219 221 224 227 231 234 235 234 229 221 214 210 210 202 189 181 178 177 191 206 201 200 226 268 312 334 347 352 342
177 179 181 186 193 196 197 195 194 196 197 196 196 195 195 195 194 191 192 194 194 193 193 194 196 199 200 203 205 205 208 210 210 212 216 216 215 215 216 217 218 219 220 219 219 221 226 231 234 233 227 220 213 210 212 215 217 220 226 229 231 230 226 221 213 205 201 201 192 169 148 119 71 73 232 230 213 223 253 285 317 342 2 357 334
179 181 182 189 197 198 198 196 196 196 195 191 188 185 185 191 192 190 191 196 197 197 197 196 197 198 200 203 204 205 209 212 212 214 218 219 219 219 219 219 219 219 220 219 218 219 221 223 225 227 222 217 214 212 212 214 213 214 220 226 225 219 214 210 199 186 176 150 94 77 66 58 50 285 272 271 276 277 280 288 311 340 -0 352 338
184 187 188 195 200 200 198 196 195 196 193 183 177 173 170 174 182 185 188 193 195 196 197 199 199 199 201 205 205 205 210 211 210 213 217 217 217 218 218 220 220 220 220 218 215 214 215 217 221 225 222 220 221 220 220 221 218 212 211 215 218 212 196 172 154 151 155 146 121 119 151 183 191 203 213 220 262 278 270 272 297 331 346 345 345
190 190 192 199 202 199 198 198 195 194 188 178 173 170 163 158 160 169 179 186 191 194 195 197 199 200 204 209 207 204 205 205 206 212 217 213 208 210 214 218 219 220 220 217 211 209 212 215 219 221 220 222 224 223 227 230 222 210 202 201 200 174 134 123 132 158 173 173 170 176 186 188 185 186 185 189 212 237 237 244 257 267 345 5 2
205 200 198 202 203 199 197 197 196 192 183 174 172 171 166 161 156 149 155 171 182 189 192 194 195 197 201 206 207 206 205 204 204 211 214 211 206 205 207 210 212 213 213 209 204 205 209 213 218 220 221 225 225 224 228 229 211 195 189 185 167 138 127 137 162 172 169 168 174 185 197 201 207 213 206 198 203 206 203 219 223 191 114 43 19
262 273 257 226 215 213 207 198 194 192 182 173 172 173 171 168 163 154 147 152 164 174 184 189 192 195 196 196 198 203 206 207 207 209 209 206 202 199 198 199 200 203 205 202 200 201 206 212 220 223 222 224 222 215 212 202 183 175 173 164 148 141 147 159 167 170 176 182 181 185 208 225 227 227 220 203 188 179 183 204 196 138 104 67 30
254 282 302 294 254 238 231 212 193 185 179 173 173 174 171 169 166 160 154 152 153 158 167 175 180 186 190 191 192 197 202 203 202 199 196 194 192 191 192 190 188 190 194 197 198 200 204 208 213 213 210 207 202 195 186 176 170 169 167 156 144 143 150 158 170 190 209 213 197 194 216 224 217 212 205 184 162 157 169 175 136 100 96 76 31
161 241 302 298 272 253 253 238 204 182 174 171 172 172 169 166 163 159 156 157 157 155 156 158 161 166 171 174 177 179 183 185 184 181 182 184 183 183 184 183 180 182 184 187 191 195 195 193 192 192 192 188 181 177 169 161 157 159 160 157 150 144 145 154 167 180 200 211 203 195 200 205 202 198 201 186 168 178 184 146 101 97 117 77 4
51 63 49 331 279 260 261 257 224 181 167 164 164 164 161 159 159 157 152 148 147 148 149 150 149 150 153 156 160 164 165 167 168 168 170 174 176 179 181 178 175 174 171 169 172 172 169 172 176 178 180 176 168 160 152 145 142 144 151 159 162 158 156 161 165 171 184 194 187 172 166 175 185 186 215 258 115 118 128 102 61 40 88 353 318
59 58 61 48 11 297 271 265 247 178 153 146 144 145 142 140 141 138 129 122 124 128 135 141 144 148 150 152 157 161 160 157 153 149 149 156 160 161 159 155 153 152 147 148 159 157 147 149 157 158 157 154 148 144 141 138 135 135 140 151 161 164 164 164 168 179 188 183 174 175 178 182 185 180 176 221 326 288 239 206 180 246 289 305 305
60 57 77 90 58 38 12 298 283 102 111 114 117 120 118 114 114 112 108 109 113 113 116 125 132 144 152 154 155 155 151 146 142 139 140 145 148 147 144 142 141 140 136 138 146 144 132 126 129 132 135 134 132 135 140 142 141 138 136 141 147 153 158 163 170 184 187 181 191 201 178 163 182 197 177 161 250 283 270 194 153 318 306 306 310
55 54 64 111 112 68 59 70 83 87 91 95 102 108 109 107 107 107 107 111 114 115 121 128 128 140 153 154 152 150 144 139 136 136 135 134 133 135 135 133 130 129 127 127 128 126 122 120 120 122 124 122 121 126 134 138 141 140 134 134 140 147 159 169 175 179 177 178 203 212 186 165 198 223 184 159 228 300 347 39 344 306 292 288 295
52 51 48 50 74 93 93 89 92 98 101 99 97 100 103 104 106 107 109 112 114 115 122 126 128 140 148 148 145 143 139 131 125 122 120 118 118 119 119 118 117 117 117 115 114 113 110 109 110 112 115 115 117 122 124 129 140 145 143 143 150 158 173 182 180 174 172 177 195 194 155 136 165 204 138 110 123 323 334 310 285 279 278 284 299
57 56 51 44 49 66 82 88 89 93 96 96 97 99 101 103 106 107 107 110 114 116 117 118 126 140 144 137 128 123 118 112 107 107 106 105 105 106 107 109 109 109 108 107 107 107 106 102 99 98 100 101 104 108 110 114 128 136 133 129 124 111 101 115 132 136 132 109 81 77 79 78 90 167 65 51 40 343 308 296 291 293 299 308 316
63 62 61 56 51 51 54 63 77 84 86 87 91 97 102 106 109 110 111 113 115 115 112 110 113 120 122 118 114 109 102 95 94 96 96 96 96 98 100 102 102 102 101 100 103 106 105 99 93 92 94 94 94 96 96 95 96 97 96 98 102 97 88 86 92 95 86 74 68 65 58 49 38 9 4 16 9 344 320 307 306 320 335 334 325
63 67 68 66 62 57 53 53 60 71 79 83 86 89 94 98 102 107 111 112 112 110 107 104 104 104 102 103 103 100 94 91 93 94 94 94 95 95 95 96 98 99 98 96 101 107 105 97 92 94 95 91 90 93 94 93 92 91 91 93 96 94 87 80 77 75 76 75 72 68 60 45 28 15 14 16 8 355 345 336 337 348 352 347 339
58 63 66 68 66 63 61 59 58 59 65 74 78 80 84 88 92 97 101 103 102 100 98 96 97 97 96 96 98 98 98 99 99 98 99 100 99 97 97 98 98 98 98 97 99 103 103 98 95 96 93 89 88 92 93 92 93 92 90 91 89 83 77 73 67 62 67 78 79 73 68 56 30 17 13 8 0 356 352 348 347 349 347 345 343
61 61 64 67 68 66 64 65 65 63 60 61 65 71 78 82 84 88 92 94 94 94 93 93 95 96 97 98 100 100 101 101 101 101 103 103 102 101 101 100 99 100 102 104 105 105 104 102 102 101 98 95 95 96 96 96 96 94 90 90 89 84 77 71 65 60 61 71 73 54 47 36 19 12 7 358 351 349 346 342 342 344 343 340 338
70 68 67 68 71 72 69 67 71 73 71 66 63 65 72 78 81 84 87 88 90 92 93 94 96 99 100 103 106 107 108 106 105 106 107 107 106 106 104 102 100 100 101 104 106 105 104 104 104 104 104 103 101 99 97 95 94 93 91 89 88 85 80 77 77 73 69 73 83 79 62 44 27 16 9 1 351 344 340 338 338 338 334 331 329
69 71 72 72 74 77 76 72 71 74 77 77 73 67 66 71 77 81 85 88 90 93 95 97 100 102 103 104 108 112 115 115 114 113 112 111 110 109 107 104 103 102 101 101 100 99 99 99 100 100 102 102 100 97 95 93 91 90 88 87 85 83 81 83 84 81 79 92 97 83 63 43 23 7 2 359 350 340 339 340 339 335 333 329 324
65 69 73 73 73 77 80 80 79 77 78 81 82 78 72 67 67 74 82 87 91 95 98 100 101 102 103 102 102 104 107 110 112 112 110 108 107 106 106 106 106 105 103 100 98 97 97 97 97 97 98 98 96 93 90 88 86 83 81 81 81 81 81 84 84 82 82 91 90 73 47 22 9 5 0 356 349 339 335 338 336 331 327 322 316
57 62 67 69 71 75 80 84 86 85 84 85 86 86 82 76 71 73 79 83 86 90 95 98 100 100 100 101 102 102 102 104 106 107 106 105 105 104 104 104 103 102 101 99 96 95 94 93 92 92 93 92 90 87 84 80 76 74 74 76 79 81 85 88 88 85 82 80 74 62 46 38 38 30 20 16 13 4 354 347 337 326 320 318 315
50 53 56 59 63 68 73 78 82 84 86 89 91 91 89 87 83 81 82 83 84 86 88 91 95 97 97 98 100 102 101 100 100 101 101 102 102 101 100 100 100 99 99 98 96 94 92 90 89 88 85 83 82 80 77 73 69 69 71 76 79 82 87 90 89 87 82 74 64 55 48 45 42 34 28 26 19 7 353 343 337 333 331 329 323